THOR ABLESTAR DEB, 141

Orbit data source: Space-Track

THOR ABLESTAR DEB, 141 is space debris in LEO originally from a launch on Thu, 29 Jun 1961 UTC launched from the Air Force Eastern Test Range (AFETR). Debris objects in space refer to the collection of defunct objects orbiting the Earth. Examples of debris include non-operational satellites, rocket bodies, and fragments generated from explosions, collisions, or faulty payload assembly.

Loading next visibility...
Identifier
141, 1961-015AB
Orbit
LEO
Country
Flag of USUS
Related business
Manufacturer
Unknown
Mission
Spacecraft
Bus & Motor
Unknown
Mass
Unknown
Launch date (UTC)
1961-06-29 (65 years ago)
Launch vehicle
Unknown
Launch site
Air Force Eastern Test Range (AFETR)
Object type
Payload
Rocket body
Debris
Shape & HBR
Unknown shape, 0.5 m
Radar Cross Section
Medium (>0.1 m² and <1 m²)

Expand to show TLE details & history
Last TLE update: 22 hours ago

TLE from 22 hours ago
0 THOR ABLESTAR DEB
1 00141U 61015AB  26033.33434116  .00000312  00000-0  31907-3 0  9997
2 00141  66.5898  15.1656 0048892 140.7485 219.7152 13.88906685253094
Epoch: 2026-02-02T08:01Z
TLE epoch observation values (Epoch: 2026-02-02T08:01:27.076Z)
Latitude
-0.00008°
Longitude
122.27163°
Altitude
962.092 km
Speed
7.357 km/s
True Right ascension
01h 00m 39s
True Declination
0° 00' 00"
Sunlit
Object was in daylight at epoch
Visualization orbit readout
Latitude
Unknown
Longitude
Unknown
Altitude
Unknown
Speed
Unknown
Apparent Right ascension
Unknown
Apparent Declination
Unknown
Sunlit
N/A
Visualization observer readout
Local Sidereal Time
07:25:45
Azimuth
Unknown
Elevation
Unknown
Doppler factor
Unknown
Orbital elements
Apogee altitude
966.619 km
Perigee altitude
895.149 km
Semi-major axis
7,309.021 km
Eccentricity
0.00489
Inclination
66.5898°
RAAN
15.1656°
Arg. of periapsis
140.7485°
True anomaly
219.35889°
Mean anomaly
219.7152°
Eccentric anomaly
219.53688°
Mean motion
3.4734 °/min
Orbital period
103.64 mins
BSTAR
0.00031907
Loading maneuver chart data...
Computing Atmospheric mass density...
Loading historical data...
Loading historical data...
Loading historical data...
Loading historical data...
Loading historical data...
Loading historical data...
Loading historical data...

Documentation

Showing up to 5 results
|